Regional Weather Roundup
Issued by NWS Charleston, SC

Home | Current Version | Previous Version | Text Only | Print | Product List | Glossary On
Versions: 1 2 3 4 5 6 7 8 9 10 11 12 13 14 15 16 17 18 19 20 21 22 23 24 25 26 27 28 29 30 31 32 33 34 35 36 37 38 39 40 41 42 43 44 45 46 47 48 49 50
000
ASUS42 KCHS 071327
RWRCHS

REGIONAL WEATHER ROUNDUP
NATIONAL WEATHER SERVICE CHARLESTON SC
900 AM EDT TUE JUL 07 2015

NOTE: "FAIR" INDICATES FEW OR NO CLOUDS BELOW 12,000 FEET WITH NO
SIGNIFICANT WEATHER AND/OR OBSTRUCTIONS TO VISIBILITY.

NOT ALL STATIONS ARE QUALITY CONTROLLED BY THE NATIONAL
WEATHER SERVICE. USE DATA WITH CAUTION...ESPECIALLY
DEWPOINT OBSERVATIONS.

SCZ027-030-031-034>040-042>050-071400-
...SOUTHEAST SOUTH CAROLINA...

CITY           SKY/WX    TMP DP  RH WIND       PRES   REMARKS
N CHARLESTON   MOSUNNY   80  72  76 S3        30.16R
WATERFRONT PAR   N/A     80  75  84 VRB2      30.14R
MOUNT PLEASANT FAIR      82  73  74 S3        30.16F
JOHNS ISLAND   FAIR      84  75  74 VRB3      30.16F HX  92
PINOPOLIS      NOT AVBL
MONCKS CORNER  FAIR      82  73  74 SW3       30.16S
SUMMERVILLE    FAIR      81  73  78 CALM      30.17S
BEAUFORT MCAS  CLOUDY    82  73  74 VRB3      30.16R
BEAUFORT ARPT  FAIR      82  73  74 CALM      30.16S
HILTON HEAD IS SUNNY     81  72  74 CALM      30.17R
WALTERBORO     SUNNY     79  72  78 SW5       30.17R
ALLENDALE      FAIR      81  73  78 CALM      30.15S

...SOUTHERN MIDLANDS AND PEE DEE...

CITY           SKY/WX    TMP DP  RH WIND       PRES   REMARKS
GEORGETOWN     NOT AVBL
KINGSTREE      NOT AVBL
ORANGEBURG     SUNNY     78  72  81 S5        30.15R
BARNWELL       FAIR      81  73  78 SW3       30.16S
AIKEN          NOT AVBL
MANNING        FAIR      79  72  78 S3        30.15S
COLUMBIA       SUNNY     79  71  76 SW5       30.14R
SUMTER         SUNNY     79  73  80 S5        30.13R
FLORENCE       SUNNY     80  73  79 SW5       30.14S
MYRTLE BEACH   SUNNY     82  72  69 SW7       30.18R
N MYRTLE BEACH SUNNY     81  73  76 S9        30.16R

$$

GAZ063-065-086>088-099>101-113>116-118-119-134>141-150-071400-
...SOUTHEAST GEORGIA...

CITY           SKY/WX    TMP DP  RH WIND       PRES   REMARKS
SAVANNAH ARPT  MOSUNNY   79  72  79 W5        30.17R
HUNTER AAF     SUNNY     79  76  91 VRB2      30.15R
FORT STEWART   SUNNY     80  72  76 W1        30.15R
STATESBORO     NOT AVBL
SYLVANIA       SUNNY     79  76  90 CALM      30.17S
CLAXTON        FAIR      79  73  83 CALM      30.17S

...CSRA...CENTRAL AND FAR SOUTHEAST GEORGIA...

CITY           SKY/WX    TMP DP  RH WIND       PRES   REMARKS
THOMSON        SUNNY     80  75  85 W5        30.21R
AUGUSTA-BUSH   SUNNY     78  72  81 W6        30.15R
AUGUSTA-DANIEL SUNNY     78  71  79 CALM      30.17R
SWAINSBORO     FAIR      81  81 100 NW6       30.19R HX  91
VIDALIA        SUNNY     81  72  74 CALM      30.18R
EASTMAN        FAIR      80  75  83 CALM      30.21R
HAZLEHURST     FAIR      82  74  76 CALM      30.17R
ALMA           SUNNY     78  72  81 CALM      30.18R
WAYCROSS       SUNNY     83  76  79 CALM      30.18S HX  92
JESUP          FAIR      82  73  74 CALM      30.18R
BAXLEY         FAIR      81  73  78 CALM      30.18R
BRUNSWICK      SUNNY     79  73  83 W5        30.18S
SAINT SIMONS   SUNNY     79  72  79 W5        30.17R

$$

SCZ027-028-034-036>038-045-046-048>050-GAZ119-141-071400-
...LAKE AND SUPPLEMENTAL COASTAL OBSERVATIONS...

STATION/POSITION TIME  TEMP    WIND        PRES    WAVE   SWELL
                       AIR SEA DIR/SP/G            HT/PER HT/PER/DIR
                 (UTC) (F)     (DEG/KT/KT) (MB)    (FT/S) (FT/S/D)
UPR LAKE MARION  NOT AVBL
WINYAH BAY       1245   80     220/  6     1020.0S
LAKE MURRAY      1200   78     200/  3/  6 1019.6R
ACE BASIN NERRS  NOT AVBL
FORT PULASKI     1300   81 83  210/  2/  3 1022.0R
SAPELO ISLAND    1300   79     240/  2     1022.0R

$$

ANZ835-935-AMZ111-154-330-350-352-354-370-450-454-472-071400-
...C-MAN AND BUOY OBSERVATIONS...

STATION/POSITION TIME  TEMP    WIND        PRES    WAVE   SWELL
                       AIR SEA DIR/SP/G            HT/PER HT/PER/DIR
                 (UTC) (F)     (DEG/KT/KT) (MB)    (FT/S) (FT/S/D)
BUOY 41004       1250   81 83  230/  8/ 10 1021.1R   3/ 8   3/ 8
BUOY 41008       1250   78 79  220/  6/  8 1021.9R   2/ 8   2/110/ 8
FOLLY BEACH CMAN 1300   81     220/  6/  7 1021.5R
CAPERS NEARSHORE 1208   82     230/  6/  8 1021.4R
FRIPP NEARSHORE  1200   81     260/  8/ 10 1021.0R


STATION/POSITION TIME  TEMP    WIND        PRES    WAVE   SWELL
                       AIR SEA DIR/SP/G            HT/PER HT/PER/DIR
                 (UTC) (F)     (DEG/KT/KT) (MB)    (FT/S) (FT/S/D)
5E ST. MARYS GA  1221      77                N/A     2/ 8
FRYING PAN BUOY  1250   81 79  230/  8/  8 1022.0R   3/ 8   3/130/ 8
BUOY 41025       1250   80 82  250/  8/ 10 1021.0R   3/ 9   3/150/ 9
CAPE LOOKOUT NC  1300   81     250/  9/ 12 1021.1R
BUOY 41002       1250   81 81  190/ 12/ 14 1023.4R   4/ 8   3/130/ 8
BUOY 41010       1220   81 83  220/ 12/ 16 1022.2R
ST AUGUSTINE FL  1300   72 71  140/  4/  5 1023.1R


$$


USA.gov is the U.S. government's official web portal to all federal, state and local government web resources and services.